STARLINK-32280, 60736

Orbit data source: Space-Track

STARLINK-32280, 60736 is a payload satellite owned by SpaceX/Seattle (US) in LEO that was launched on Wed, 28 Aug 2024 UTC via an FALCON 9 launch vehicle from the Air Force Eastern Test Range (AFETR). Payload-class satellites include a variety of spacecraft equipped with specific instruments for various scientific and technological missions. These include communications satellites like Starlink; space stations such as the ISS; scientific satellites like the Hubble; Earth observation satellites from companies like Planet Labs, Umbra, and HawkEye 360; GPS; miniature CubeSats for education and research; and military/defense satellites.

Not visible in the next 10 days
Identifier
60736, 2024-152S
Orbit
LEO
Country
Flag of USUS
Related business
Manufacturer
SpaceX/Seattle
Mission
Partially operational Commercial Communications
Bus & Motor
STARLINK V2M, Unknown motor
Mass
730 kg wet, ~700 kg dry
Launch date (UTC)
2024-08-28 (1 year ago)
Launch vehicle
FALCON 9
Launch site
Air Force Eastern Test Range (AFETR)
Object type
Payload
Rocket body
Debris
Shape & HBR
Box + 2 Pan, 17.7 m
Radar Cross Section
33.884 m², Large (>1 m²)

Expand to show TLE details & history
Last TLE update: 10 hours ago

TLE from 10 hours ago
0 STARLINK-32280
1 60736U 24152S   25288.07256928  .02251162  62745-2  17500-2 0  9990
2 60736  53.1214 211.9940 0011960 189.2705 170.8113 16.15542968 64698
Epoch: 2025-10-15T01:44Z
TLE epoch observation values (Epoch: 2025-10-15T01:44:29.985Z)
Latitude
-0.00006°
Longitude
162.01713°
Altitude
240.413 km
Speed
7.759 km/s
True Right ascension
14h 07m 58s
True Declination
0° 00' 00"
Sunlit
Object was in daylight at epoch
Visualization orbit readout
Latitude
Unknown
Longitude
Unknown
Altitude
Unknown
Speed
Unknown
Apparent Right ascension
Unknown
Apparent Declination
Unknown
Sunlit
N/A
Visualization observer readout
Local Sidereal Time
06:44:07
Azimuth
Unknown
Elevation
Unknown
Doppler factor
Unknown
Orbital elements
Apogee altitude
239.859 km
Perigee altitude
224.047 km
Semi-major axis
6,610.09 km
Eccentricity
0.0012
Inclination
53.1214°
RAAN
211.994°
Arg. of periapsis
189.2705°
True anomaly
170.83315°
Mean anomaly
170.8113°
Eccentric anomaly
170.82223°
Mean motion
4.03861 °/min
Orbital period
89.14 mins
BSTAR
0.00175
Loading maneuver chart data...
Computing Atmospheric mass density...
Loading historical data...
Loading historical data...
Loading historical data...
Loading historical data...
Loading historical data...
Loading historical data...
Loading historical data...

Documentation

Showing up to 5 results
|